Time,TemperatureF,DewpointF,PressureIn,WindDirection,WindDirectionDegrees,WindSpeedMPH,WindSpeedGustMPH,Humidity,HourlyPrecipIn,Conditions,Clouds,dailyrainin,SoftwareType,DateUTC
2013-09-01 00:01:00,55.0,52.0,30.51,NNW,330,4.0,6.0,92,-99.99,,,-99.99,,2013-09-01 06:01:00,
2013-09-01 00:06:00,55.0,52.0,30.51,NW,320,0.0,5.0,92,-99.99,,,-99.99,,2013-09-01 06:06:00,
2013-09-01 00:16:00,54.0,52.0,30.50,NNE,30,4.0,4.0,92,-99.99,,,-99.99,,2013-09-01 06:16:00,
2013-09-01 00:26:00,54.0,52.0,30.50,NNE,30,0.0,5.0,93,-99.99,,,-99.99,,2013-09-01 06:26:00,
2013-09-01 00:31:00,54.0,52.0,30.50,NNE,30,0.0,3.0,93,-99.99,,,-99.99,,2013-09-01 06:31:00,
2013-09-01 00:36:00,54.0,52.0,30.50,NE,50,0.0,0.0,93,-99.99,,,-99.99,,2013-09-01 06:36:00,
2013-09-01 00:41:00,53.0,51.0,30.50,NE,40,4.0,4.0,93,-99.99,,,-99.99,,2013-09-01 06:41:00,
2013-09-01 00:51:00,53.0,51.0,30.50,North,10,2.0,6.0,94,-99.99,,,-99.99,,2013-09-01 06:51:00,
2013-09-01 01:01:00,53.0,51.0,30.49,ENE,60,4.0,6.0,95,-99.99,,,-99.99,,2013-09-01 07:01:00,
2013-09-01 01:06:00,53.0,51.0,30.49,NW,320,1.0,6.0,95,-99.99,,,-99.99,,2013-09-01 07:06:00,
2013-09-01 01:16:00,52.0,51.0,30.49,NNW,330,6.0,6.0,95,-99.99,,,-99.99,,2013-09-01 07:16:00,
2013-09-01 01:26:00,52.0,51.0,30.49,NNW,330,6.0,8.0,96,-99.99,,,-99.99,,2013-09-01 07:26:00,
2013-09-01 01:36:00,52.0,50.0,30.49,NW,310,6.0,8.0,95,-99.99,,,-99.99,,2013-09-01 07:36:00,
2013-09-01 01:41:00,52.0,50.0,30.49,NW,320,7.0,8.0,96,-99.99,,,-99.99,,2013-09-01 07:41:00,
2013-09-01 01:51:00,52.0,51.0,30.49,WNW,300,6.0,8.0,97,-99.99,,,-99.99,,2013-09-01 07:51:00,
2013-09-01 02:01:00,51.0,50.0,30.49,ENE,70,0.0,6.0,96,-99.99,,,-99.99,,2013-09-01 08:01:00,
2013-09-01 02:06:00,51.0,50.0,30.49,ENE,70,0.0,4.0,97,-99.99,,,-99.99,,2013-09-01 08:06:00,
2013-09-01 02:11:00,51.0,50.0,30.49,NNE,20,4.0,0.0,96,-99.99,,,-99.99,,2013-09-01 08:11:00,
2013-09-01 02:21:00,51.0,50.0,30.49,NE,40,0.0,5.0,97,-99.99,,,-99.99,,2013-09-01 08:21:00,
2013-09-01 02:31:00,51.0,50.0,30.49,NE,50,0.0,5.0,97,-99.99,,,-99.99,,2013-09-01 08:31:00,
2013-09-01 02:36:00,51.0,50.0,30.49,NE,50,0.0,5.0,97,-99.99,,,-99.99,,2013-09-01 08:36:00,
2013-09-01 02:41:00,51.0,50.0,30.48,NE,50,0.0,0.0,97,-99.99,,,-99.99,,2013-09-01 08:41:00,
2013-09-01 02:46:00,50.0,50.0,30.49,NE,50,0.0,0.0,97,-99.99,,,-99.99,,2013-09-01 08:46:00,
2013-09-01 02:56:00,50.0,49.0,30.49,NNW,330,4.0,7.0,97,-99.99,,,-99.99,,2013-09-01 08:56:00,
2013-09-01 03:01:00,50.0,49.0,30.48,North,350,0.0,6.0,97,-99.99,,,-99.99,,2013-09-01 09:01:00,
2013-09-01 03:06:00,50.0,49.0,30.48,NNW,340,3.0,4.0,97,-99.99,,,-99.99,,2013-09-01 09:06:00,
2013-09-01 03:11:00,50.0,49.0,30.48,North,0,6.0,6.0,97,-99.99,,,-99.99,,2013-09-01 09:11:00,
2013-09-01 03:21:00,50.0,49.0,30.48,NE,40,5.0,6.0,98,-99.99,,,-99.99,,2013-09-01 09:21:00,
2013-09-01 03:26:00,50.0,49.0,30.48,NNW,340,6.0,6.0,98,-99.99,,,-99.99,,2013-09-01 09:26:00,
2013-09-01 03:31:00,50.0,49.0,30.48,NNW,340,7.0,9.0,98,-99.99,,,-99.99,,2013-09-01 09:31:00,
2013-09-01 03:36:00,50.0,49.0,30.48,NW,320,4.0,7.0,98,-99.99,,,-99.99,,2013-09-01 09:36:00,
2013-09-01 03:41:00,50.0,49.0,30.48,NE,50,2.0,5.0,98,-99.99,,,-99.99,,2013-09-01 09:41:00,
2013-09-01 03:51:00,49.0,49.0,30.48,NNW,340,6.0,6.0,98,-99.99,,,-99.99,,2013-09-01 09:51:00,
2013-09-01 03:56:00,49.0,49.0,30.48,WNW,300,4.0,6.0,98,-99.99,,,-99.99,,2013-09-01 09:56:00,
2013-09-01 04:01:00,49.0,49.0,30.48,NNW,330,7.0,7.0,98,-99.99,,,-99.99,,2013-09-01 10:01:00,
2013-09-01 04:06:00,49.0,49.0,30.48,NNW,340,6.0,8.0,99,-99.99,,,-99.99,,2013-09-01 10:06:00,
2013-09-01 04:16:00,49.0,48.0,30.48,North,0,3.0,7.0,98,-99.99,,,-99.99,,2013-09-01 10:16:00,
2013-09-01 04:26:00,48.0,48.0,30.48,North,0,5.0,7.0,98,-99.99,,,-99.99,,2013-09-01 10:26:00,
2013-09-01 04:31:00,48.0,48.0,30.48,North,0,7.0,8.0,99,-99.99,,,-99.99,,2013-09-01 10:31:00,
2013-09-01 04:36:00,48.0,48.0,30.48,North,0,5.0,9.0,99,-99.99,,,-99.99,,2013-09-01 10:36:00,
2013-09-01 04:46:00,48.0,47.0,30.48,NNE,20,0.0,7.0,99,-99.99,,,-99.99,,2013-09-01 10:46:00,
2013-09-01 04:56:00,47.0,47.0,30.48,NNE,20,0.0,0.0,99,-99.99,,,-99.99,,2013-09-01 10:56:00,
2013-09-01 05:01:00,47.0,47.0,30.48,NNE,20,0.0,0.0,99,-99.99,,,-99.99,,2013-09-01 11:01:00,
2013-09-01 05:06:00,47.0,47.0,30.48,NNE,20,0.0,0.0,99,-99.99,,,-99.99,,2013-09-01 11:06:00,
2013-09-01 05:11:00,47.0,47.0,30.48,NNE,20,0.0,0.0,99,-99.99,,,-99.99,,2013-09-01 11:11:00,
2013-09-01 05:21:00,47.0,47.0,30.48,NNE,20,0.0,0.0,99,-99.99,,,-99.99,,2013-09-01 11:21:00,
2013-09-01 05:26:00,47.0,47.0,30.48,NNE,20,0.0,0.0,99,-99.99,,,-99.99,,2013-09-01 11:26:00,
2013-09-01 05:36:00,47.0,47.0,30.48,North,350,3.0,7.0,100,-99.99,,,-99.99,,2013-09-01 11:36:00,
2013-09-01 05:41:00,47.0,47.0,30.48,NNW,340,4.0,8.0,100,-99.99,,,-99.99,,2013-09-01 11:41:00,
2013-09-01 05:51:00,47.0,47.0,30.49,North,10,0.0,4.0,99,-99.99,,,-99.99,,2013-09-01 11:51:00,
2013-09-01 05:56:00,47.0,46.0,30.49,NNW,340,0.0,5.0,99,-99.99,,,-99.99,,2013-09-01 11:56:00,
2013-09-01 06:01:00,47.0,47.0,30.49,NNE,20,0.0,9.0,100,-99.99,,,-99.99,,2013-09-01 12:01:00,
2013-09-01 06:06:00,46.0,46.0,30.49,North,350,0.0,5.0,100,-99.99,,,-99.99,,2013-09-01 12:06:00,
2013-09-01 06:11:00,46.0,46.0,30.49,NNW,340,5.0,6.0,100,-99.99,,,-99.99,,2013-09-01 12:11:00,
2013-09-01 06:16:00,46.0,46.0,30.49,North,350,6.0,7.0,100,-99.99,,,-99.99,,2013-09-01 12:16:00,
2013-09-01 06:26:00,46.0,46.0,30.49,NNE,20,3.0,7.0,100,-99.99,,,-99.99,,2013-09-01 12:26:00,
2013-09-01 06:36:00,46.0,46.0,30.49,North,0,7.0,7.0,100,-99.99,,,-99.99,,2013-09-01 12:36:00,
2013-09-01 06:41:00,46.0,46.0,30.50,NW,320,6.0,7.0,100,-99.99,,,-99.99,,2013-09-01 12:41:00,
2013-09-01 06:46:00,46.0,46.0,30.50,NNW,340,6.0,8.0,100,-99.99,,,-99.99,,2013-09-01 12:46:00,
2013-09-01 06:56:00,46.0,46.0,30.50,NNW,340,7.0,7.0,100,-99.99,,,-99.99,,2013-09-01 12:56:00,
2013-09-01 07:01:00,46.0,46.0,30.50,NNE,30,0.0,8.0,100,-99.99,,,-99.99,,2013-09-01 13:01:00,
2013-09-01 07:06:00,46.0,46.0,30.50,NNE,30,3.0,5.0,100,-99.99,,,-99.99,,2013-09-01 13:06:00,
2013-09-01 07:16:00,46.0,46.0,30.50,NNW,340,6.0,0.0,100,-99.99,,,-99.99,,2013-09-01 13:16:00,
2013-09-01 07:21:00,46.0,46.0,30.50,NNW,340,6.0,6.0,100,-99.99,,,-99.99,,2013-09-01 13:21:00,
2013-09-01 07:31:00,47.0,47.0,30.50,NNW,340,3.0,8.0,99,-99.99,,,-99.99,,2013-09-01 13:31:00,
2013-09-01 07:41:00,48.0,47.0,30.51,NNW,330,4.0,7.0,99,-99.99,,,-99.99,,2013-09-01 13:41:00,
2013-09-01 07:46:00,48.0,48.0,30.51,NW,310,3.0,6.0,99,-99.99,,,-99.99,,2013-09-01 13:46:00,
2013-09-01 07:51:00,49.0,49.0,30.51,North,0,0.0,6.0,98,-99.99,,,-99.99,,2013-09-01 13:51:00,
2013-09-01 08:01:00,51.0,50.0,30.51,NW,310,0.0,7.0,95,-99.99,,,-99.99,,2013-09-01 14:01:00,
2013-09-01 08:11:00,52.0,50.0,30.52,West,280,5.0,7.0,94,-99.99,,,-99.99,,2013-09-01 14:11:00,
2013-09-01 08:16:00,52.0,50.0,30.51,NNW,330,6.0,7.0,93,-99.99,,,-99.99,,2013-09-01 14:16:00,
2013-09-01 08:21:00,53.0,51.0,30.52,West,260,5.0,9.0,92,-99.99,,,-99.99,,2013-09-01 14:21:00,
2013-09-01 08:26:00,53.0,51.0,30.52,WNW,300,7.0,9.0,92,-99.99,,,-99.99,,2013-09-01 14:26:00,
2013-09-01 08:31:00,54.0,51.0,30.52,NNW,340,7.0,9.0,91,-99.99,,,-99.99,,2013-09-01 14:31:00,
2013-09-01 08:36:00,54.0,51.0,30.52,WNW,290,6.0,9.0,91,-99.99,,,-99.99,,2013-09-01 14:36:00,
2013-09-01 08:46:00,55.0,52.0,30.51,NNW,330,0.0,8.0,90,-99.99,,,-99.99,,2013-09-01 14:46:00,
2013-09-01 08:51:00,56.0,52.0,30.51,WNW,290,6.0,9.0,86,-99.99,,,-99.99,,2013-09-01 14:51:00,
2013-09-01 08:56:00,56.0,52.0,30.52,WNW,290,8.0,9.0,86,-99.99,,,-99.99,,2013-09-01 14:56:00,
2013-09-01 09:06:00,56.0,52.0,30.51,WNW,290,7.0,11.0,86,-99.99,,,-99.99,,2013-09-01 15:06:00,
2013-09-01 09:11:00,56.0,52.0,30.52,NW,310,9.0,10.0,86,-99.99,,,-99.99,,2013-09-01 15:11:00,
2013-09-01 09:16:00,57.0,53.0,30.51,West,270,10.0,10.0,86,-99.99,,,-99.99,,2013-09-01 15:16:00,
2013-09-01 09:21:00,57.0,53.0,30.52,WNW,290,6.0,11.0,84,-99.99,,,-99.99,,2013-09-01 15:21:00,
2013-09-01 09:26:00,58.0,53.0,30.52,West,280,6.0,9.0,83,-99.99,,,-99.99,,2013-09-01 15:26:00,
2013-09-01 09:31:00,59.0,53.0,30.52,NW,320,7.0,9.0,82,-99.99,,,-99.99,,2013-09-01 15:31:00,
2013-09-01 09:41:00,59.0,53.0,30.52,WNW,290,8.0,10.0,80,-99.99,,,-99.99,,2013-09-01 15:41:00,
2013-09-01 09:51:00,60.0,53.0,30.52,WNW,300,10.0,10.0,77,-99.99,,,-99.99,,2013-09-01 15:51:00,
2013-09-01 10:01:00,61.0,53.0,30.52,NW,310,6.0,9.0,74,-99.99,,,-99.99,,2013-09-01 16:01:00,
2013-09-01 10:06:00,62.0,53.0,30.52,West,280,0.0,6.0,72,-99.99,,,-99.99,,2013-09-01 16:06:00,
2013-09-01 10:16:00,64.0,54.0,30.52,West,280,6.0,6.0,70,-99.99,,,-99.99,,2013-09-01 16:16:00,
2013-09-01 10:26:00,65.0,53.0,30.52,West,260,0.0,6.0,65,-99.99,,,-99.99,,2013-09-01 16:26:00,
2013-09-01 10:31:00,66.0,54.0,30.52,NNW,330,4.0,5.0,65,-99.99,,,-99.99,,2013-09-01 16:31:00,
2013-09-01 10:36:00,66.0,52.0,30.52,NW,310,0.0,4.0,60,-99.99,,,-99.99,,2013-09-01 16:36:00,
2013-09-01 10:41:00,67.0,54.0,30.52,SSE,160,0.0,4.0,62,-99.99,,,-99.99,,2013-09-01 16:41:00,
2013-09-01 10:51:00,68.0,53.0,30.52,South,170,0.0,0.0,58,-99.99,,,-99.99,,2013-09-01 16:51:00,
2013-09-01 11:01:00,68.0,53.0,30.52,SSE,160,0.0,6.0,57,-99.99,,,-99.99,,2013-09-01 17:01:00,
2013-09-01 11:06:00,69.0,54.0,30.52,SSE,160,0.0,6.0,58,-99.99,,,-99.99,,2013-09-01 17:06:00,
2013-09-01 11:11:00,69.0,52.0,30.52,SSE,160,0.0,0.0,54,-99.99,,,-99.99,,2013-09-01 17:11:00,
2013-09-01 11:16:00,69.0,52.0,30.52,South,170,0.0,0.0,53,-99.99,,,-99.99,,2013-09-01 17:16:00,
2013-09-01 11:21:00,70.0,52.0,30.52,South,170,4.0,5.0,53,-99.99,,,-99.99,,2013-09-01 17:21:00,
2013-09-01 11:26:00,70.0,50.0,30.52,South,170,0.0,5.0,50,-99.99,,,-99.99,,2013-09-01 17:26:00,
2013-09-01 11:31:00,70.0,50.0,30.52,South,170,0.0,2.0,50,-99.99,,,-99.99,,2013-09-01 17:31:00,
2013-09-01 11:41:00,71.0,50.0,30.51,ESE,110,3.0,6.0,47,-99.99,,,-99.99,,2013-09-01 17:41:00,
2013-09-01 11:46:00,72.0,50.0,30.51,East,90,6.0,8.0,46,-99.99,,,-99.99,,2013-09-01 17:46:00,
2013-09-01 11:56:00,72.0,49.0,30.51,South,170,6.0,7.0,44,-99.99,,,-99.99,,2013-09-01 17:56:00,
2013-09-01 12:06:00,73.0,51.0,30.50,SSE,150,3.0,7.0,46,-99.99,,,-99.99,,2013-09-01 18:06:00,
2013-09-01 12:11:00,73.0,50.0,30.50,NNE,30,3.0,6.0,44,-99.99,,,-99.99,,2013-09-01 18:11:00,
2013-09-01 12:21:00,74.0,50.0,30.50,South,180,0.0,7.0,44,-99.99,,,-99.99,,2013-09-01 18:21:00,
2013-09-01 12:26:00,74.0,50.0,30.50,SE,130,6.0,6.0,44,-99.99,,,-99.99,,2013-09-01 18:26:00,
2013-09-01 12:36:00,74.0,50.0,30.49,SE,130,0.0,7.0,42,-99.99,,,-99.99,,2013-09-01 18:36:00,
2013-09-01 12:41:00,75.0,50.0,30.49,SE,130,0.0,6.0,42,-99.99,,,-99.99,,2013-09-01 18:41:00,
2013-09-01 12:46:00,74.0,50.0,30.49,SE,130,0.0,0.0,42,-99.99,,,-99.99,,2013-09-01 18:46:00,
2013-09-01 12:56:00,75.0,50.0,30.49,SSE,150,8.0,8.0,42,-99.99,,,-99.99,,2013-09-01 18:56:00,
2013-09-01 13:01:00,76.0,51.0,30.49,SSW,200,3.0,7.0,42,-99.99,,,-99.99,,2013-09-01 19:01:00,
2013-09-01 13:06:00,77.0,49.0,30.49,South,170,3.0,8.0,38,-99.99,,,-99.99,,2013-09-01 19:06:00,
2013-09-01 13:11:00,77.0,49.0,30.48,West,260,5.0,6.0,38,-99.99,,,-99.99,,2013-09-01 19:11:00,
2013-09-01 13:16:00,77.0,51.0,30.49,WNW,300,12.0,12.0,40,-99.99,,,-99.99,,2013-09-01 19:16:00,
2013-09-01 13:26:00,75.0,51.0,30.49,WNW,300,9.0,12.0,43,-99.99,,,-99.99,,2013-09-01 19:26:00,
2013-09-01 13:31:00,74.0,52.0,30.49,North,0,14.0,14.0,45,-99.99,,,-99.99,,2013-09-01 19:31:00,
2013-09-01 13:36:00,74.0,51.0,30.49,NNE,30,7.0,15.0,44,-99.99,,,-99.99,,2013-09-01 19:36:00,
2013-09-01 13:46:00,74.0,48.0,30.48,North,0,10.0,13.0,40,-99.99,,,-99.99,,2013-09-01 19:46:00,
2013-09-01 13:51:00,74.0,48.0,30.48,North,10,9.0,11.0,40,-99.99,,,-99.99,,2013-09-01 19:51:00,
2013-09-01 14:01:00,74.0,48.0,30.48,NNE,30,4.0,12.0,39,-99.99,,,-99.99,,2013-09-01 20:01:00,
2013-09-01 14:11:00,76.0,48.0,30.48,NW,320,11.0,11.0,38,-99.99,,,-99.99,,2013-09-01 20:11:00,
2013-09-01 14:16:00,76.0,49.0,30.48,NNE,30,0.0,10.0,39,-99.99,,,-99.99,,2013-09-01 20:16:00,
2013-09-01 14:26:00,75.0,49.0,30.48,NNW,330,6.0,12.0,39,-99.99,,,-99.99,,2013-09-01 20:26:00,
2013-09-01 14:31:00,75.0,49.0,30.48,WNW,300,6.0,8.0,40,-99.99,,,-99.99,,2013-09-01 20:31:00,
2013-09-01 14:36:00,75.0,50.0,30.48,West,280,6.0,10.0,41,-99.99,,,-99.99,,2013-09-01 20:36:00,
2013-09-01 14:46:00,76.0,49.0,30.47,North,0,3.0,9.0,39,-99.99,,,-99.99,,2013-09-01 20:46:00,
2013-09-01 14:51:00,76.0,49.0,30.47,NNE,20,3.0,12.0,39,-99.99,,,-99.99,,2013-09-01 20:51:00,
2013-09-01 15:01:00,75.0,48.0,30.47,NNW,330,3.0,7.0,39,-99.99,,,-99.99,,2013-09-01 21:01:00,
2013-09-01 15:11:00,75.0,49.0,30.46,West,260,2.0,4.0,41,-99.99,,,-99.99,,2013-09-01 21:11:00,
2013-09-01 15:16:00,75.0,49.0,30.46,West,260,0.0,6.0,39,-99.99,,,-99.99,,2013-09-01 21:16:00,
2013-09-01 15:26:00,76.0,47.0,30.46,WSW,240,0.0,0.0,37,-99.99,,,-99.99,,2013-09-01 21:26:00,
2013-09-01 15:31:00,76.0,48.0,30.45,WSW,240,0.0,3.0,37,-99.99,,,-99.99,,2013-09-01 21:31:00,
2013-09-01 15:36:00,76.0,49.0,30.45,SSE,160,0.0,0.0,39,-99.99,,,-99.99,,2013-09-01 21:36:00,
2013-09-01 15:46:00,75.0,49.0,30.45,SSE,160,22.0,22.0,41,-99.99,,,-99.99,,2013-09-01 21:46:00,
2013-09-01 15:51:00,74.0,47.0,30.46,SSE,160,13.0,21.0,39,-99.99,,,-99.99,,2013-09-01 21:51:00,
2013-09-01 16:01:00,72.0,47.0,30.46,South,170,11.0,16.0,41,-99.99,,,-99.99,,2013-09-01 22:01:00,
2013-09-01 16:11:00,71.0,48.0,30.47,SSE,160,9.0,13.0,45,-99.99,,,-99.99,,2013-09-01 22:11:00,
2013-09-01 16:16:00,70.0,48.0,30.47,South,170,8.0,12.0,46,-99.99,,,-99.99,,2013-09-01 22:16:00,
2013-09-01 16:26:00,67.0,52.0,30.48,ESE,120,9.0,17.0,58,-99.99,,,-99.99,,2013-09-01 22:26:00,
2013-09-01 16:31:00,66.0,53.0,30.48,SE,130,10.0,12.0,63,-99.99,,,-99.99,,2013-09-01 22:31:00,
2013-09-01 16:41:00,65.0,53.0,30.50,SSE,150,14.0,14.0,65,-99.99,,,-99.99,,2013-09-01 22:41:00,
2013-09-01 16:46:00,64.0,53.0,30.50,SSE,150,13.0,13.0,65,-99.99,,,-99.99,,2013-09-01 22:46:00,
2013-09-01 16:51:00,64.0,52.0,30.50,East,100,10.0,15.0,64,-99.99,,,-99.99,,2013-09-01 22:51:00,
2013-09-01 16:56:00,64.0,52.0,30.50,SSE,150,7.0,17.0,64,-99.99,,,-99.99,,2013-09-01 22:56:00,
2013-09-01 17:06:00,64.0,52.0,30.51,SE,140,10.0,15.0,64,-99.99,,,-99.99,,2013-09-01 23:06:00,
2013-09-01 17:11:00,64.0,52.0,30.51,SE,130,5.0,13.0,64,-99.99,,,-99.99,,2013-09-01 23:11:00,
2013-09-01 17:16:00,64.0,51.0,30.50,ESE,120,10.0,15.0,63,-99.99,,,-99.99,,2013-09-01 23:16:00,
2013-09-01 17:21:00,64.0,53.0,30.50,ESE,110,10.0,13.0,68,-99.99,,,-99.99,,2013-09-01 23:21:00,
2013-09-01 17:26:00,63.0,53.0,30.50,SSE,160,10.0,15.0,70,-99.99,,,-99.99,,2013-09-01 23:26:00,
2013-09-01 17:36:00,63.0,53.0,30.50,SSE,160,10.0,14.0,71,-99.99,,,-99.99,,2013-09-01 23:36:00,
2013-09-01 17:41:00,63.0,55.0,30.50,South,180,15.0,16.0,74,-99.99,,,-99.99,,2013-09-01 23:41:00,
2013-09-01 17:46:00,64.0,55.0,30.51,SSE,160,6.0,15.0,73,-99.99,,,-99.99,,2013-09-01 23:46:00,
2013-09-01 17:56:00,66.0,54.0,30.51,South,180,6.0,12.0,65,-99.99,,,-99.99,,2013-09-01 23:56:00,
2013-09-01 18:06:00,66.0,52.0,30.50,South,190,6.0,8.0,60,-99.99,,,-99.99,,2013-09-02 00:06:00,
2013-09-01 18:11:00,65.0,52.0,30.50,South,180,7.0,9.0,63,-99.99,,,-99.99,,2013-09-02 00:11:00,
2013-09-01 18:21:00,66.0,52.0,30.50,South,180,6.0,8.0,61,-99.99,,,-99.99,,2013-09-02 00:21:00,
2013-09-01 18:31:00,66.0,51.0,30.49,East,100,0.0,8.0,59,-99.99,,,-99.99,,2013-09-02 00:31:00,
2013-09-01 18:36:00,66.0,51.0,30.49,ENE,70,0.0,6.0,60,-99.99,,,-99.99,,2013-09-02 00:36:00,
2013-09-01 18:46:00,65.0,52.0,30.49,SE,140,4.0,5.0,61,-99.99,,,-99.99,,2013-09-02 00:46:00,
2013-09-01 18:51:00,65.0,51.0,30.48,East,100,0.0,4.0,61,-99.99,,,-99.99,,2013-09-02 00:51:00,
2013-09-01 19:01:00,64.0,52.0,30.48,East,100,0.0,0.0,64,-99.99,,,-99.99,,2013-09-02 01:01:00,
2013-09-01 19:06:00,64.0,53.0,30.49,East,100,0.0,0.0,67,-99.99,,,-99.99,,2013-09-02 01:06:00,
2013-09-01 19:16:00,63.0,52.0,30.49,East,100,0.0,0.0,68,-99.99,,,-99.99,,2013-09-02 01:16:00,
2013-09-01 19:21:00,63.0,52.0,30.49,East,100,0.0,0.0,69,-99.99,,,-99.99,,2013-09-02 01:21:00,
2013-09-01 19:26:00,62.0,53.0,30.49,East,100,0.0,0.0,72,-99.99,,,-99.99,,2013-09-02 01:26:00,
2013-09-01 19:31:00,62.0,53.0,30.49,East,100,0.0,0.0,72,-99.99,,,-99.99,,2013-09-02 01:31:00,
2013-09-01 19:41:00,61.0,53.0,30.49,East,100,0.0,0.0,74,-99.99,,,-99.99,,2013-09-02 01:41:00,
2013-09-01 19:46:00,60.0,52.0,30.49,WNW,290,0.0,0.0,75,-99.99,,,-99.99,,2013-09-02 01:46:00,
2013-09-01 19:51:00,59.0,51.0,30.50,WNW,290,0.0,4.0,75,-99.99,,,-99.99,,2013-09-02 01:51:00,
2013-09-01 19:56:00,59.0,52.0,30.50,North,10,4.0,0.0,76,-99.99,,,-99.99,,2013-09-02 01:56:00,
2013-09-01 20:06:00,58.0,51.0,30.50,North,10,3.0,5.0,77,-99.99,,,-99.99,,2013-09-02 02:06:00,
2013-09-01 20:11:00,58.0,51.0,30.50,NNW,330,3.0,5.0,77,-99.99,,,-99.99,,2013-09-02 02:11:00,
2013-09-01 20:21:00,57.0,51.0,30.50,North,350,4.0,6.0,80,-99.99,,,-99.99,,2013-09-02 02:21:00,
2013-09-01 20:26:00,57.0,51.0,30.50,NNW,330,4.0,6.0,81,-99.99,,,-99.99,,2013-09-02 02:26:00,
2013-09-01 20:31:00,56.0,51.0,30.50,NNW,340,3.0,5.0,83,-99.99,,,-99.99,,2013-09-02 02:31:00,
2013-09-01 20:36:00,56.0,51.0,30.51,North,0,0.0,5.0,84,-99.99,,,-99.99,,2013-09-02 02:36:00,
2013-09-01 20:41:00,55.0,51.0,30.51,NNW,330,8.0,8.0,84,-99.99,,,-99.99,,2013-09-02 02:41:00,
2013-09-01 20:46:00,55.0,50.0,30.51,NNE,20,4.0,9.0,84,-99.99,,,-99.99,,2013-09-02 02:46:00,
2013-09-01 20:56:00,54.0,51.0,30.52,ENE,60,3.0,7.0,88,-99.99,,,-99.99,,2013-09-02 02:56:00,
2013-09-01 21:01:00,54.0,51.0,30.52,NNW,340,7.0,8.0,89,-99.99,,,-99.99,,2013-09-02 03:01:00,
2013-09-01 21:11:00,54.0,51.0,30.52,North,0,3.0,8.0,89,-99.99,,,-99.99,,2013-09-02 03:11:00,
2013-09-01 21:21:00,54.0,51.0,30.53,West,270,0.0,7.0,89,-99.99,,,-99.99,,2013-09-02 03:21:00,
2013-09-01 21:31:00,54.0,51.0,30.52,West,270,0.0,0.0,90,-99.99,,,-99.99,,2013-09-02 03:31:00,
2013-09-01 21:41:00,54.0,51.0,30.53,West,270,0.0,0.0,90,-99.99,,,-99.99,,2013-09-02 03:41:00,
2013-09-01 21:46:00,54.0,51.0,30.53,North,10,5.0,0.0,91,-99.99,,,-99.99,,2013-09-02 03:46:00,
2013-09-01 21:51:00,54.0,51.0,30.53,NNE,30,3.0,5.0,91,-99.99,,,-99.99,,2013-09-02 03:51:00,
2013-09-01 21:56:00,53.0,51.0,30.53,NNE,30,0.0,4.0,92,-99.99,,,-99.99,,2013-09-02 03:56:00,
2013-09-01 22:01:00,53.0,51.0,30.54,North,10,0.0,0.0,92,-99.99,,,-99.99,,2013-09-02 04:01:00,
2013-09-01 22:06:00,54.0,51.0,30.54,North,10,0.0,4.0,92,-99.99,,,-99.99,,2013-09-02 04:06:00,
2013-09-01 22:11:00,54.0,51.0,30.54,North,10,0.0,0.0,92,-99.99,,,-99.99,,2013-09-02 04:11:00,
2013-09-01 22:16:00,54.0,51.0,30.55,North,10,0.0,0.0,92,-99.99,,,-99.99,,2013-09-02 04:16:00,
2013-09-01 22:21:00,54.0,51.0,30.54,North,10,0.0,0.0,92,-99.99,,,-99.99,,2013-09-02 04:21:00,
2013-09-01 22:31:00,54.0,51.0,30.55,NNW,340,0.0,0.0,92,-99.99,,,-99.99,,2013-09-02 04:31:00,
2013-09-01 22:41:00,54.0,51.0,30.55,NNW,340,0.0,0.0,92,-99.99,,,-99.99,,2013-09-02 04:41:00,
2013-09-01 22:46:00,54.0,51.0,30.55,NNW,340,0.0,0.0,92,-99.99,,,-99.99,,2013-09-02 04:46:00,
2013-09-01 22:56:00,53.0,51.0,30.55,NNW,340,0.0,0.0,93,-99.99,,,-99.99,,2013-09-02 04:56:00,
2013-09-01 23:01:00,53.0,51.0,30.55,NNW,340,0.0,0.0,93,-99.99,,,-99.99,,2013-09-02 05:01:00,
2013-09-01 23:11:00,53.0,51.0,30.55,NNW,340,0.0,0.0,93,-99.99,,,-99.99,,2013-09-02 05:11:00,
2013-09-01 23:16:00,53.0,51.0,30.55,NNW,340,0.0,0.0,93,-99.99,,,-99.99,,2013-09-02 05:16:00,
2013-09-01 23:26:00,53.0,51.0,30.56,NNW,340,0.0,0.0,93,-99.99,,,-99.99,,2013-09-02 05:26:00,
2013-09-01 23:31:00,53.0,51.0,30.56,NNW,340,0.0,0.0,94,-99.99,,,-99.99,,2013-09-02 05:31:00,
2013-09-01 23:36:00,53.0,51.0,30.55,NNW,340,0.0,0.0,94,-99.99,,,-99.99,,2013-09-02 05:36:00,
2013-09-01 23:41:00,53.0,51.0,30.55,NNW,340,0.0,0.0,95,-99.99,,,-99.99,,2013-09-02 05:41:00,
2013-09-01 23:46:00,53.0,51.0,30.56,West,260,0.0,0.0,95,-99.99,,,-99.99,,2013-09-02 05:46:00,
2013-09-01 23:56:00,52.0,51.0,30.55,West,260,0.0,0.0,95,-99.99,,,-99.99,,2013-09-02 05:56:00,